www.pogodaiklimat.ru

Погода и климат >> Архив погоды >> Россия >> Краснодарский край >> Анапа


АРХИВ ПОГОДЫ в Анапе

Время (UTC), дата Ветер
(напр.,м/с)
 
Видим.   Явления Облачность Т
(С)
Тd
(С)
f
(%)
Тe
(С)
Тes
(С)
Комфортность P
(гПа)
Po
(гПа)
Тmin
(С)
Tmax
(С)
R
(мм)
R24
(мм)
S
(см)
03 10.09 В 6
{12}
10 км ясно +17.8 +8.4 54 +17 +17 по сезону 1015.7 1012.0 +17.8
06 10.09 В 6-13
{14}
20 км ясно +19.6 +9.8 53 +20 +22 тепло 1016.7 1013.1 +17.5
09 10.09 В 7-11
{13}
20 км ясно +23.7 +9.7 41 +25 +28 комфорт 1016.8 1013.2
12 10.09 В 4
{15}
20 км ясно +27.3 +9.3 32 +27 +33 жарко 1016.4 1012.8
15 10.09 В 6-11
{14}
20 км ясно +26.2 +7.6 31 +26 +26 жарко 1016.3 1012.8 +27.3
18 10.09 СВ 2
{11}
10 км ясно +22.8 +7.2 37 +24 +24 комфорт 1017.4 1013.7
21 10.09 В 6-13
{13}
10 км ясно +22.4 +6.5 36 +23 +23 комфорт 1016.6 1013.0
00 11.09 В 5
{14}
10 км ясно +20.3 +6.6 41 +21 +21 комфорт 1017.6 1013.9
03 11.09 В 5-10
{10}
10 км ясно +18.4 +8.8 54 +18 +18 по сезону 1018.6 1014.9 +18.4
06 11.09 В 7-12
{13}
20 км ясно +20.0 +11.7 59 +21 +22 комфорт 1019.8 1016.2 +18.2
09 11.09 В 6-12
{13}
20 км ясно +25.2 +11.9 43 +27 +31 жарко 1019.5 1015.9
12 11.09 В 6-12
{13}
20 км 3/3 300 м
[Cb cap]
+27.9 +12.7 39 +29 +32 жарко 1019.4 1015.8
15 11.09 В 5-10
{15}
20 км ясно +27.3 +10.2 34 +28 +28 жарко 1019.6 1016.1 +28.3
18 11.09 СВ 3
{11}
10 км ясно +23.9 +9.4 40 +25 +25 комфорт 1020.3 1016.7
21 11.09 В 5-11
{11}
10 км ясно +21.7 +4.5 32 +22 +22 комфорт 1019.6 1015.9
00 12.09 В 6-11
{12}
10 км ясно +19.9 +5.0 38 +20 +20 тепло 1019.7 1016.0
03 12.09 В 4
{11}
10 км ясно +18.5 +6.8 46 +19 +19 тепло 1021.0 1017.3 +18.5
06 12.09 В 3
{10}
20 км ясно +23.0 +7.5 37 +24 +28 комфорт 1021.2 1017.6 +18.5
09 12.09 В 5-10
{15}
10 км ясно +26.2 +5.6 27 +26 +32 жарко 1020.9 1017.3
12 12.09 В 7-13
{16}
20 км ясно +27.8 +4.0 22 +26 +29 жарко 1019.8 1016.2
15 12.09 В 5
{14}
20 км ясно +27.0 +3.8 22 +26 +26 жарко 1019.5 1015.9 +28.2
18 12.09 СВ 3 10 км ясно +23.3 +4.7 30 +23 +23 комфорт 1020.5 1016.9
21 12.09 СВ 3 10 км ясно +19.5 +5.3 39 +20 +20 тепло 1019.9 1016.2
00 13.09 СВ 5 10 км ясно +18.0 +5.0 42 +18 +18 тепло 1019.2 1015.5
03 13.09 СВ 5
{11}
10 км ясно +17.1 +5.9 48 +16 +16 по сезону 1019.3 1015.6 +16.8
06 13.09 В 3 20 км ясно +21.5 +7.7 41 +22 +26 комфорт 1020.5 1016.8 +16.8
09 13.09 В 6-12
{13}
20 км ясно +25.3 +6.2 29 +25 +30 комфорт 1019.9 1016.3
12 13.09 В 6-11
{13}
20 км ясно +27.4 +5.3 24 +26 +29 жарко 1018.8 1015.2
15 13.09 В 3
{11}
20 км ясно +26.4 +5.8 27 +26 +26 жарко 1018.6 1015.0 +27.6 0.3
18 13.09 СВ 2 10 км ясно +20.8 +6.4 39 +22 +22 комфорт 1019.5 1015.8
21 13.09 В 2 10 км ясно +18.6 +6.3 45 +19 +19 тепло 1019.4 1015.7
00 14.09 СВ 2 10 км ясно +16.6 +5.9 49 +17 +17 тепло 1019.0 1015.3
03 14.09 СВ 2 10 км ясно +15.3 +6.2 55 +15 +15 по сезону 1019.0 1015.2 +15.2
06 14.09 СВ 2 20 км ясно +22.6 +7.8 39 +24 +28 комфорт 1019.2 1015.6 +15.0
09 14.09 СВ 4 20 км ясно +26.5 +6.8 29 +26 +34 жарко 1018.4 1014.8
12 14.09 СВ 3 20 км ясно +27.7 +6.2 26 +27 +33 жарко 1017.5 1014.0
15 14.09 С 2
{10}
20 км ясно +24.3 +8.0 35 +25 +25 комфорт 1017.6 1014.0 +28.2
18 14.09 СВ 2 10 км ясно +20.0 +8.6 48 +22 +22 комфорт 1018.2 1014.5
21 14.09 СВ 2 10 км 4/0
[Ci fib]
+17.3 +8.2 55 +18 +18 тепло 1018.6 1014.9
00 15.09 В 3 10 км 5/0
[Ci fib]
+16.8 +8.1 56 +17 +17 тепло 1018.1 1014.4
03 15.09 В 3 10 км 4/0
[Ac trans]
+16.7 +7.7 55 +17 +17 по сезону 1018.3 1014.6 +15.6
06 15.09 СВ 3 20 км ясно +20.8 +13.2 62 +24 +27 комфорт 1019.7 1016.0 +15.4
09 15.09 С 4 20 км 1/0
[Ac trans]
+23.8 +13.0 51 +26 +33 жарко 1020.5 1016.9
12 15.09 СВ 4 20 км ясно +24.0 +12.0 47 +26 +31 жарко 1020.2 1016.6
15 15.09 СВ 4 20 км ясно +20.7 +10.1 51 +23 +23 комфорт 1020.7 1017.0 +24.3
18 15.09 СВ 3 10 км ясно +17.6 +8.3 54 +18 +18 по сезону 1021.2 1017.5
21 15.09 СВ 3 10 км ясно +16.5 +6.8 53 +16 +16 по сезону 1020.3 1016.6
00 16.09 СВ 4 10 км ясно +16.6 +5.2 47 +16 +16 по сезону 1019.3 1015.6
03 16.09 В 4 10 км ясно +16.3 +2.9 41 +16 +16 по сезону 1018.4 1014.6 +16.0
06 16.09 СВ 4 20 км ясно +19.8 +6.0 40 +21 +23 комфорт 1017.2 1013.5 +15.7
09 16.09 С 3 20 км ясно +24.4 +5.6 30 +24 +34 комфорт 1016.1 1012.5
12 16.09 СЗ 2 20 км ясно +25.6 +8.0 33 +26 +33 жарко 1014.7 1011.2
15 16.09 С 2 20 км ясно +22.1 +8.1 41 +23 +23 комфорт 1014.1 1010.5 +26.0
18 16.09 В 2 10 км ясно +18.8 +7.4 47 +20 +20 тепло 1014.2 1010.6
21 16.09 В 1 10 км ясно +15.1 +7.2 59 +16 +16 по сезону 1014.3 1010.6
00 17.09 В 3 10 км ясно +14.2 +8.5 69 +13 +13 по сезону 1013.5 1009.8

 

Местоположение метеостанции Анапа (Краснодарский край, Россия): широта 44.88 долгота 37.28 высота над уровнем моря 32 м.

В архиве по умолчанию представлена погода в Анапе за последнюю неделю. Архивные данные за месяц целиком и за предыдущие месяцы, начиная с января 2011 года, Вы можете получить, выбрав интересующий диапазон дат из раскрывающегося списка и нажав кнопку "Ввод!".


*Определитесь, кто Вы:
робот инопланетянин человек

Внимание! Время в таблицах - всемирное. Для получения местного времени необходимо прибавить поправку, которая равна 3 ч.

Смотрите также архив погоды в соседних городах и на ближайших метеорологических станциях:

Погода в Новороссийске (Краснодарский край, Россия) (48 км)
Погода в Темрюке (Краснодарский край, Россия) (50 км)
Погода в Крымске (Краснодарский край, Россия) (57 км)
Погода в Тамани (Краснодарский край, Россия) (58 км)
Погода в Геленджике (Краснодарский край, Россия) (72 км)
Погода в Опасном (Крым, Россия) (75 км)
Погода в Славянске-на-Кубани (Краснодарский край, Россия) (80 км)
Погода в Керчи (Крым, Россия) (86 км)
Погода в Джубге (Краснодарский край, Россия) (129 км)
Погода в Мысовом (Крым, Россия) (131 км)

Пояснения к столбцам:

Ветер - указаны скорость ветра в м/с - средняя за 10 мин, порывы в срок и между сроками (в фигурных скобках) и направление, откуда дует ветер: С - северный, СВ - северо-восточный, В - восточный, ЮВ - юго-восточный, Ю - южный, ЮЗ - юго-западный, З - западный, СЗ - северо-западный.
Видимость - горизонтальная дальность видимости в метрах или километрах. При видимости от 1 до 10 км при отсутствии осадков обычно наблюдается дымка, при ухудшении видимости до 1 км и менее - туман. В сухую погоду видимость может ухудшаться дымом, пылью или мглою.
Явления - указаны атмосферные явления, наблюдавшиеся в срок или в последний час перед сроком; фигурными скобками обозначены явления, наблюдавшиеся между сроками (за 1-3 часа до срока); квадратными скобками обозначены град или гололедные отложения с указанием их диаметра в мм.
Облачность - указаны через наклонную черту общая и нижняя облачность в баллах и высота нижней границы облаков в метрах; квадратными скобками обозначены формы облаков: Ci - перистые, Cs - перисто-слоистые, Cc - перисто-кучевые, Ac - высококучевые, As - высокослоистые, Sc - слоисто-кучевые, Ns - слоисто-дождевые, Cu - кучевые, Cb - кучево-дождевые. Подробнее классификацию облаков см. в Атласе облаков (PDF).
T - Температура воздуха - температура, измеренная на высоте 2 м над землей.
Td - Температура точки росы - температура, при понижении до которой содержащийся в воздухе водяной пар достигнет насыщения.
f - Относительная влажность воздуха - влажноcть воздуха, измеренная на высоте 2 м над землей.
Te - Эффективная температура - температура, которую ощущает одетый по сезону человек в тени. Характеристика душности погоды. При расчете учитывается влияние влажности воздуха и скорости ветра на теплоощущения человека.
Tes - Эффективная температура на солнце - температура, которую ощущает человек, с поправкой на солнечный нагрев. Характеристика знойности погоды. Зависит от высоты солнца над горизонтом, облачности и скорости ветра. Ночью, в пасмурную погоду, а также при ветре 12 м/с и более поправка равна нулю.
P - Атмосферное давление - приведенное к уровню моря атмосферное давление.
Po - Атмосферное давление - измеренное на уровне метеостанции атмосферное давление.
Tmin - Минимальная температура - минимум температуры воздуха на высоте 2 м над землей.
Tmax - Максимальная температура - максимум температуры воздуха на высоте 2 м над землей.
R - Количество осадков - Количество выпавших осадков за период времени, мм. При наведении курсора мыши на число - период времени, за который выпало указанное количество осадков.
R24 - Количество осадков - Количество выпавших осадков за 24 часа, мм.
S - Снежный покров - Высота снежного покрова, см. При наведении курсора мыши на число - состояние снежного покрова и степень покрытия местности в баллах.